Location: Newark
(50.8086°N, 4.3114°E)
Time: 20:50:49
(UTC+00:00)

XW-2D - Pass Details

Date: 24 January 2020
Orbit: 507 x 528 km, 97.5° (Epoch: 22 February)

Event Time Altitude Azimuth Distance (km) Brightness Sun altitude
Rises 04:27:27 0° 32° (NNE) 2,633 ? -28.6°
Reaches altitude 10° 04:30:54 10° 66° (ENE) 1,735 ? -28.0°
Maximum altitude 04:32:14 12° 87° (E) 1,631 ? -27.8°
Drops below altitude 10° 04:33:35 10° 109° (ESE) 1,727 ? -27.6°
Sets 04:36:58 0° 143° (SE) 2,603 ? -27.1°
